Plymouth, NH

2:31 AM EDT on March 28, 2017 (GMT -0400)
Plymouth

Weather History for K1P1 - May, 2013

Change the Weather History Date:

Friday, May 3, 2013

  Actual Average (KLCI) Record (KLCI)
Temperature  
Mean Temperature 50 °F -  
Max Temperature 67 °F 61 °F 87 °F (2001)
Min Temperature 32 °F 39 °F 30 °F (1984)
Degree Days  
Heating Degree Days 16    
Moisture  
Dew Point 37 °F    
Average Humidity 63    
Maximum Humidity 98    
Minimum Humidity 32    
Precipitation  
Precipitation 0.00 in - - ()
Sea Level Pressure  
Sea Level Pressure 30.45 in    
Wind  
Wind Speed 2 mph (SE)    
Max Wind Speed 9 mph    
Max Gust Speed 9 mph    
Visibility 10 miles    
Events      
Averages and records for this station are not official NWS values.
T = Trace of Precipitation, MM = Missing Value Source: NWS Daily Summary

Daily Weather History Graph

Daily Weather History Graph

Search for Another Location

Airport or City:

Trip Planner

Search our weather history database for the weather conditions in past years. The results will help you decide how hot, cold, wet, or windy it might be!

Date:

Astronomy

May. 03, 2013 Rise Set
Actual Time 5:36 AM EDT 7:52 PM EDT
Civil Twilight 5:04 AM EDT 8:24 PM EDT
Nautical Twilight 4:24 AM EDT 9:03 PM EDT
Astronomical Twilight 3:41 AM EDT 9:47 PM EDT
Moon 2:11 AM EDT (5/3) 1:32 PM EDT (5/3)
Length of Visible Light 15h 20m
Length of Day
14h 16m
Last Quarter, 37% of the Moon is Illuminated
May 3
Last Quarter
May 9
New
May 18
First Quarter
May 25
Full
May 31
Last Quarter

Hourly Weather History & Observations

Time (EDT) Temp. Windchill Dew Point Humidity Pressure Visibility Wind Dir Wind Speed Gust Speed Precip Events Conditions
12:15 AM 42.8 °F - 33.8 °F 70% 30.51 in 10.0 mi Calm Calm - N/A   Clear
12:35 AM 41.2 °F - 33.1 °F 73% 30.51 in 10.0 mi Calm Calm - N/A   Clear
12:55 AM 40.3 °F - 34.3 °F 79% 30.51 in 10.0 mi Calm Calm - N/A   Clear
1:15 AM 39.0 °F - 34.2 °F 83% 30.51 in 10.0 mi Calm Calm - N/A   Clear
1:55 AM 38.1 °F - 33.6 °F 84% 30.51 in 10.0 mi Calm Calm - N/A   Clear
2:15 AM 37.6 °F 35.1 °F 33.8 °F 86% 30.51 in 10.0 mi ESE 3.5 mph - N/A   Clear
2:35 AM 37.2 °F - 32.9 °F 84% 30.51 in 10.0 mi Calm Calm - N/A   Clear
2:55 AM 37.2 °F - 33.1 °F 85% 30.51 in 10.0 mi Calm Calm - N/A   Clear
3:15 AM 35.8 °F - 33.1 °F 90% 30.50 in 10.0 mi Calm Calm - N/A   Clear
3:35 AM 35.8 °F - 32.7 °F 89% 30.50 in 10.0 mi Calm Calm - N/A   Clear
3:55 AM 35.8 °F - 33.1 °F 90% 30.51 in 10.0 mi Calm Calm - N/A   Clear
4:15 AM 35.4 °F - 33.6 °F 93% 30.51 in 10.0 mi Calm Calm - N/A   Clear
4:35 AM 34.3 °F - 32.9 °F 94% 30.51 in 10.0 mi Calm Calm - N/A   Clear
4:55 AM 33.8 °F - 32.7 °F 96% 30.52 in 10.0 mi Calm Calm - N/A   Clear
5:15 AM 33.1 °F - 32.0 °F 96% 30.52 in 10.0 mi Calm Calm - N/A   Clear
5:35 AM 33.1 °F - 32.2 °F 96% 30.52 in 10.0 mi Calm Calm - N/A   Clear
5:55 AM 32.9 °F - 32.4 °F 98% 30.53 in 10.0 mi Calm Calm - N/A   Clear
6:15 AM 32.9 °F - 32.2 °F 97% 30.54 in 10.0 mi Calm Calm - N/A   Clear
6:35 AM 33.6 °F - 32.9 °F 97% 30.54 in 10.0 mi Calm Calm - N/A   Clear
6:55 AM 36.0 °F - 35.1 °F 97% 30.54 in 10.0 mi Calm Calm - N/A   Clear
7:15 AM 37.9 °F - 35.6 °F 91% 30.54 in 10.0 mi Calm Calm - N/A   Clear
7:35 AM 40.3 °F - 35.6 °F 83% 30.54 in 10.0 mi Calm Calm - N/A   Clear
7:55 AM 43.0 °F - 36.7 °F 78% 30.54 in 10.0 mi Calm Calm - N/A   Clear
8:15 AM 45.7 °F - 36.9 °F 71% 30.54 in 10.0 mi Calm Calm - N/A   Clear
8:35 AM 47.5 °F - 36.0 °F 64% 30.54 in 10.0 mi Calm Calm - N/A   Clear
8:55 AM 49.8 °F - 36.9 °F 61% 30.54 in 10.0 mi SSE 3.5 mph - N/A   Clear
9:15 AM 51.1 °F - 35.6 °F 55% 30.54 in 10.0 mi Calm Calm - N/A   Clear
9:35 AM 52.9 °F - 36.0 °F 53% 30.52 in 10.0 mi Calm Calm - N/A   Clear
10:15 AM 55.2 °F - 34.7 °F 46% 30.51 in 10.0 mi Calm Calm - N/A   Clear
10:55 AM 57.7 °F - 34.5 °F 42% 30.50 in 10.0 mi East 9.2 mph - N/A   Clear
11:15 AM 59.2 °F - 34.9 °F 40% 30.49 in 10.0 mi ESE 5.8 mph - N/A   Clear
11:35 AM 59.9 °F - 34.7 °F 39% 30.48 in 10.0 mi SE 6.9 mph - N/A   Clear
11:55 AM 60.6 °F - 36.0 °F 40% 30.47 in 10.0 mi ESE 9.2 mph - N/A   Clear
12:15 PM 61.3 °F - 35.8 °F 39% 30.46 in 10.0 mi SE 8.1 mph - N/A   Clear
12:35 PM 61.9 °F - 35.1 °F 37% 30.45 in 10.0 mi SE 5.8 mph - N/A   Clear
12:55 PM 62.8 °F - 35.2 °F 36% 30.44 in 10.0 mi SE 5.8 mph - N/A   Clear
1:35 PM 63.9 °F - 34.5 °F 34% 30.43 in 10.0 mi SSE 5.8 mph - N/A   Clear
1:55 PM 64.8 °F - 35.6 °F 34% 30.42 in 10.0 mi SSE 5.8 mph - N/A   Clear
2:15 PM 65.1 °F - 35.8 °F 34% 30.42 in 10.0 mi ESE 8.1 mph - N/A   Clear
2:35 PM 65.7 °F - 35.8 °F 33% 30.42 in 10.0 mi East 8.1 mph - N/A   Clear
2:55 PM 66.0 °F - 36.0 °F 33% 30.41 in 10.0 mi East 9.2 mph - N/A   Clear
3:15 PM 66.4 °F - 36.1 °F 33% 30.40 in 10.0 mi SSE 6.9 mph - N/A   Clear
3:35 PM 66.7 °F - 37.0 °F 33% 30.39 in 7.0 mi East 5.8 mph 9.2 mph N/A   Clear
3:55 PM 67.1 °F - 36.3 °F 32% 30.38 in 10.0 mi ESE 5.8 mph - N/A   Clear
4:15 PM 67.1 °F - 37.0 °F 33% 30.37 in 10.0 mi SSE 5.8 mph - N/A   Clear
4:35 PM 67.1 °F - 37.2 °F 33% 30.37 in 10.0 mi ESE 9.2 mph - N/A   Clear
4:55 PM 67.1 °F - 37.8 °F 34% 30.37 in 10.0 mi ESE 6.9 mph - N/A   Clear
5:15 PM 67.1 °F - 38.3 °F 35% 30.37 in 10.0 mi SSE 4.6 mph - N/A   Clear
5:35 PM 66.6 °F - 38.3 °F 35% 30.37 in 10.0 mi ESE 5.8 mph - N/A   Clear
5:55 PM 66.4 °F - 38.1 °F 35% 30.37 in 10.0 mi ESE 4.6 mph - N/A   Clear
6:15 PM 66.4 °F - 38.7 °F 36% 30.36 in 10.0 mi ESE 5.8 mph - N/A   Clear
6:35 PM 65.8 °F - 38.5 °F 37% 30.36 in 10.0 mi SE 5.8 mph - N/A   Clear
6:55 PM 65.5 °F - 38.7 °F 37% 30.36 in 10.0 mi SSE 4.6 mph - N/A   Clear
7:15 PM 64.8 °F - 39.0 °F 39% 30.36 in 10.0 mi Calm Calm - N/A   Clear
7:35 PM 64.0 °F - 39.4 °F 40% 30.36 in 10.0 mi Calm Calm - N/A   Clear
7:55 PM 59.2 °F - 42.4 °F 54% 30.36 in 10.0 mi Calm Calm - N/A   Clear
8:15 PM 55.9 °F - 44.6 °F 66% 30.37 in 10.0 mi Calm Calm - N/A   Clear
8:35 PM 52.9 °F - 44.4 °F 73% 30.37 in 10.0 mi Calm Calm - N/A   Clear
8:55 PM 52.2 °F - 44.2 °F 74% 30.38 in 10.0 mi Calm Calm - N/A   Clear
9:15 PM 51.1 °F - 44.1 °F 77% 30.38 in 10.0 mi Calm Calm - N/A   Clear
9:35 PM 50.0 °F - 43.0 °F 77% 30.38 in 10.0 mi Calm Calm - N/A   Clear
9:55 PM 49.5 °F - 43.0 °F 78% 30.38 in 10.0 mi Calm Calm - N/A   Clear
10:15 PM 48.0 °F - 43.5 °F 84% 30.38 in 10.0 mi Calm Calm - N/A   Clear
10:35 PM 47.3 °F - 42.8 °F 84% 30.38 in 10.0 mi Calm Calm - N/A   Clear
10:55 PM 45.7 °F - 42.4 °F 88% 30.38 in 10.0 mi Calm Calm - N/A   Clear
11:15 PM 45.3 °F - 43.0 °F 92% 30.38 in 10.0 mi Calm Calm - N/A   Clear
11:55 PM 44.1 °F - 42.3 °F 93% 30.38 in 10.0 mi Calm Calm - N/A   Clear